Regional Weather Roundup
Issued by NWS

Home | Current Version | Previous Version | Graphics & Text | Print | Product List | Glossary On
Versions: 1 2 3 4 5 6 7 8 9 10 11 12 13 14 15 16 17 18 19 20 21 22 23 24 25 26 27 28 29 30 31 32 33 34 35 36 37 38 39 40 41 42 43 44 45 46 47 48 49 50
000
ASUS43 KMKX 300200
RWRWI

WISCONSIN REGIONAL WEATHER ROUNDUP
NATIONAL WEATHER SERVICE MILWAUKEE/SULLIVAN WI
900 PM CDT MON MAY 29 2017

NOTE: "FAIR" INDICATES FEW OR NO CLOUDS BELOW 12,000 FEET WITH NO
SIGNIFICANT WEATHER AND/OR OBSTRUCTIONS TO VISIBILITY.

WIZ001-002-006>008-014>016-023>028-300300-
NORTHWEST WISCONSIN

CITY           SKY/WX    TMP DP  RH WIND       PRES   REMARKS
SUPERIOR ARPT  NOT AVBL
ASHLAND        CLOUDY    55  45  68 W13       29.76R
HAYWARD        CLOUDY    55  45  68 VRB6      29.79R
SIREN          PTCLDY    55  44  67 CALM      29.81S
CUMBERLAND     PTCLDY    52  45  76 W10       29.82R
RICE LAKE      MOCLDY    55  47  74 W9        29.83R
CHETEK         MOCLDY    56  48  75 NW7       29.82R
LADYSMITH      CLOUDY    54  50  86 W7        29.81R
EAU CLAIRE     NOT AVBL
MENOMONIE      CLEAR     56  45  66 W12G18    29.84R
NEW RICHMOND   PTCLDY    54  43  65 W7        29.85R
OSCEOLA        MOCLDY    56  45  68 W5        29.86S
$$

WIZ003>005-009-010-017-018-300300-
NORTH CENTRAL WISCONSIN

CITY           SKY/WX    TMP DP  RH WIND       PRES   REMARKS
MANITOWISH WTR CLOUDY    52  49  87 W7G16     29.75R
ARBOR VITAE    CLOUDY    55  51  89 W6        29.74S
WOODRUFF       CLOUDY    55  51  89 W6        29.74S
RHINELANDER    CLOUDY    53  50  89 W10       29.77R
EAGLE RIVER    HVY RAIN  52  51  97 W7        29.74R
LAND O LAKES   LGT RAIN  51  49  91 W6        29.76R
PHILLIPS       CLOUDY    52  51  98 W3        29.77R
TOMAHAWK       CLOUDY    51  49  93 W3        29.78R
MEDFORD        MOCLDY    53  50  92 W7        29.79R
MERRILL        MOCLDY    53  51  94 W6        29.78S
$$

WIZ029-030-035-036-043>047-300300-
CENTRAL WISCONSIN

CITY           SKY/WX    TMP DP  RH WIND       PRES   REMARKS
WAUSAU         MOCLDY    52  49  89 W7        29.77S
MOSINEE        NOT AVBL
MARSHFIELD     PTCLDY    52  48  86 W7        29.80R
STEVENS POINT  CLOUDY    54  46  72 W9        29.81R
WAUPACA        MOCLDY    60  49  65 W5        29.81R
WAUTOMA        NOT AVBL
WISC RAPIDS    MOCLDY    55  46  71 W5        29.83R
CAMP DOUGLAS   NOT AVBL
$$

WIZ011>013-019>022-031-037>040-048>050-300300-
NORTHEAST WISCONSIN

CITY           SKY/WX    TMP DP  RH WIND       PRES   REMARKS
ANTIGO         MOCLDY    51  48  91 W5        29.78R
SHAWANO        CLOUDY    58  47  67 W10G22    29.78R
OCONTO         CLOUDY    55  49  80 SW5       29.76R
STURGEON BAY   CLOUDY    56  49  77 SW3       29.76F
GREEN BAY      CLEAR     59  51  75 SW7       29.78R
MANITOWOC      NOT AVBL
APPLETON       MOCLDY    57  46  67 SW10      29.79R
CLINTONVILLE   LGT RAIN  55  46  71 W8        29.78R
OSHKOSH        PTCLDY    58  45  62 VRB5      29.81R
$$

WIZ032>034-041-042-053>061-300300-
SOUTHWEST WISCONSIN

CITY           SKY/WX    TMP DP  RH WIND       PRES   REMARKS
LA CROSSE      CLOUDY    60  50  69 W9        29.85R
SPARTA         MOCLDY    58  49  71 W7        29.85R
VIROQUA        CLOUDY    57  48  70 MISG      29.87R
BOSCOBEL       PTCLDY    63  45  51 W9        29.87R
PRAIRIE DU CHI CLOUDY    63  42  46 W12G17    29.88R
PLATTEVILLE    PTCLDY    63  48  56 W10       29.88R
$$

WIZ056-057-062-063-064-067-068-300300-
SOUTH CENTRAL WISCONSIN

CITY           SKY/WX    TMP DP  RH WIND       PRES   REMARKS
REEDSBURG      PTCLDY    55  52  89 W3        29.84S
BARABOO/DELLS  PTCLDY    53  49  86 W3        29.85R
LONE ROCK      NOT AVBL
MINERAL POINT  PTCLDY    61  48  63 W3        29.87S
MADISON        MOCLDY    54  53  97 SW3       29.85R
MIDDLETON      MOCLDY    56  52  86 W6        29.86R
WATERTOWN      PTCLDY    56  53  88 SW6       29.85R
MONROE         PTCLDY    63  45  51 NW9       29.86S
JANESVILLE     MOCLDY    63  46  55 N8        29.86R
$$

WIZ051-052-058>065-066-070>072-300300-
SOUTHEAST WISCONSIN

CITY           SKY/WX    TMP DP  RH WIND       PRES   REMARKS
MILWAUKEE      CLOUDY    61  52  72 W5        29.86R
WAUKESHA       MOCLDY    57  48  72 W17G31    29.90R
MILWAUKEE/TIMM MOCLDY    63  43  48 W6          N/A
RACINE         CLOUDY    62  46  55 W3        29.87R
KENOSHA        MOCLDY    60  47  61 W3        29.86R
FOND DU LAC    PTCLDY    58  46  64 SW5       29.82R
SHEBOYGAN      PTCLDY    58  49  72 SW8       29.81R
WEST BEND      MOCLDY    59  45  58 SW7       29.83S
JUNEAU         MOCLDY    53  48  83 CALM      29.85R
$$

LSZ147-162-300300-
LAKE SUPERIOR

STATION/POSITION TIME  TEMP    WIND        PRES    WAVE
                       AIR SEA DIR/SP/G            HT/PER
                 (UTC) (F)     (DEG/KT/KT) (MB)    (FT/S)
W MID LAKE BUOY  0050   43 38  250/ 16/ 17 1004.9R   2/ 5
DEVILS ISLAND    0100   47     250/ 16/ 19 1006.6R
SAXON HARBOR     0140   57     270/ 10/ 16 1007.1R
$$

LMZ867-665-643>646-300300-
LAKE MICHIGAN

STATION/POSITION TIME  TEMP    WIND        PRES    WAVE
                       AIR SEA DIR/SP/G            HT/PER
                 (UTC) (F)     (DEG/KT/KT) (MB)    (FT/S)
CHAMBERS ISLAND  0140   56     200/  8/ 12 1006.8R
N MID LAKE BUOY  0050   50 41  240/ 10/ 10 1007.2R   2/ 4
NORTHPORT PIER   0140   60     210/  6/  9 1006.4S
KEWAUNEE LAKESHO 0130   61     260/  6/  9 1008.1R
SHEBOYGAN LAKESH 0100   63     260/ 12/ 14 1008.8R
PORT WASHINGTON  0140   62     250/  6/ 10 1010.8S
ATWATER BUOY     0009   61     220/ 16/ 17 1010.0R
MILWAUKEE LAKESH 0130   64     290/  4/  6   N/A
S MID LAKE BUOY  0050   54 48  260/  8/  8 1010.5R   2/ 4
KENOSHA   LAKESH 0100   69     260/ 10/ 14 1010.5
$$

TC  - TEMPERATURE IN CELSIUS
VSB - VISIBILITY IN STATUTE MILES
WCI - WIND CHILL INDEX
HX  - HEAT INDEX




USA.gov is the U.S. government's official web portal to all federal, state and local government web resources and services.